• In Deutschland
  • Länderverzeichnis
  • Für 7 Tage
  • Wassertemperatur
  • Satellitenkarten
  • Wetterkarte
  • Widgets
  • user-avatar
    Anmelden

    Stündliche Wetter Parelhas

    Heute, 24 Oktober, Mittwoch

    Zeit Temperatur Niederschläge Wind Luftdruck Luftfeuchtigkeit
    00:00 +26°C° 0 mm 7 m/S 735 mmHg 73%
    01:00 +26°C° 0 mm 7 m/S 734 mmHg 76%
    02:00 +24°C° 0 mm 7 m/S 734 mmHg 77%
    03:00 +24°C° 0 mm 7 m/S 734 mmHg 78%
    04:00 +24°C° 0 mm 7 m/S 734 mmHg 80%
    05:00 +24°C° 0 mm 7 m/S 734 mmHg 79%
    06:00 +24°C° 0 mm 7 m/S 735 mmHg 78%
    07:00 +24°C° 0 mm 7 m/S 735 mmHg 77%
    08:00 +27°C° 0 mm 7 m/S 736 mmHg 67%
    09:00 +29°C° 0 mm 7 m/S 736 mmHg 58%
    10:00 +32°C° 0 mm 7 m/S 736 mmHg 49%
    11:00 +33°C° 0 mm 7 m/S 736 mmHg 44%
    12:00 +35°C° 0 mm 7 m/S 735 mmHg 40%
    13:00 +36°C° 0 mm 6 m/S 735 mmHg 35%
    14:00 +36°C° 0 mm 7 m/S 734 mmHg 35%
    15:00 +36°C° 0 mm 7 m/S 733 mmHg 35%
    16:00 +36°C° 0 mm 7 m/S 733 mmHg 35%
    17:00 +34°C° 0 mm 7 m/S 733 mmHg 42%
    18:00 +33°C° 0 mm 7 m/S 733 mmHg 48%
    19:00 +31°C° 0 mm 8 m/S 734 mmHg 55%
    20:00 +29°C° 0 mm 8 m/S 734 mmHg 59%
    21:00 +28°C° 0 mm 8 m/S 735 mmHg 63%
    22:00 +27°C° 0 mm 8 m/S 735 mmHg 68%
    23:00 +27°C° 0 mm 7 m/S 735 mmHg 69%

    Morgen, 25 Oktober, Donnerstag

    Zeit Temperatur Niederschläge Wind Luftdruck Luftfeuchtigkeit
    00:00 +26°C° 0 mm 7 m/S 735 mmHg 71%
    01:00 +26°C° 0 mm 7 m/S 734 mmHg 73%
    02:00 +24°C° 0 mm 7 m/S 734 mmHg 75%
    03:00 +24°C° 0 mm 6 m/S 734 mmHg 78%
    04:00 +24°C° 0 mm 6 m/S 733 mmHg 80%
    05:00 +24°C° 0 mm 6 m/S 734 mmHg 79%
    06:00 +24°C° 0 mm 7 m/S 734 mmHg 79%
    07:00 +24°C° 0 mm 7 m/S 734 mmHg 78%
    08:00 +27°C° 0 mm 7 m/S 735 mmHg 68%
    09:00 +29°C° 0 mm 7 m/S 735 mmHg 58%
    10:00 +32°C° 0 mm 7 m/S 736 mmHg 49%
    11:00 +34°C° 0 mm 7 m/S 735 mmHg 43%
    12:00 +35°C° 0 mm 7 m/S 734 mmHg 38%
    13:00 +36°C° 0 mm 6 m/S 734 mmHg 33%
    14:00 +38°C° 0 mm 6 m/S 733 mmHg 32%
    15:00 +38°C° 0 mm 6 m/S 732 mmHg 31%
    16:00 +38°C° 0 mm 6 m/S 732 mmHg 31%
    17:00 +36°C° 0 mm 6 m/S 732 mmHg 36%
    18:00 +34°C° 0 mm 7 m/S 732 mmHg 41%
    19:00 +33°C° 0 mm 7 m/S 732 mmHg 46%
    20:00 +30°C° 0 mm 7 m/S 733 mmHg 53%
    21:00 +29°C° 0 mm 8 m/S 734 mmHg 60%
    22:00 +28°C° 0 mm 8 m/S 734 mmHg 67%
    23:00 +27°C° 0 mm 8 m/S 734 mmHg 70%

    übermorgen, 26 Oktober, Freitag

    Zeit Temperatur Niederschläge Wind Luftdruck Luftfeuchtigkeit
    00:00 +26°C° 0 mm 8 m/S 734 mmHg 73%
    01:00 +26°C° 0 mm 8 m/S 734 mmHg 77%
    02:00 +26°C° 0 mm 8 m/S 733 mmHg 78%
    03:00 +24°C° 0 mm 7 m/S 733 mmHg 79%
    04:00 +24°C° 0 mm 7 m/S 733 mmHg 81%
    05:00 +24°C° 0 mm 7 m/S 733 mmHg 80%
    06:00 +24°C° 0 mm 7 m/S 734 mmHg 80%
    07:00 +26°C° 0 mm 7 m/S 734 mmHg 79%
    08:00 +28°C° 0 mm 7 m/S 734 mmHg 70%
    09:00 +30°C° 0 mm 7 m/S 735 mmHg 60%
    10:00 +33°C° 0 mm 7 m/S 735 mmHg 50%
    11:00 +34°C° 0 mm 6 m/S 734 mmHg 44%
    12:00 +36°C° 0 mm 5 m/S 734 mmHg 39%
    13:00 +37°C° 0 mm 5 m/S 733 mmHg 33%
    14:00 +37°C° 0 mm 5 m/S 732 mmHg 32%
    15:00 +37°C° 0 mm 5 m/S 732 mmHg 32%
    16:00 +39°C° 0 mm 5 m/S 731 mmHg 31%
    17:00 +36°C° 0 mm 6 m/S 732 mmHg 38%
    18:00 +35°C° 0 mm 7 m/S 732 mmHg 45%
    19:00 +33°C° 0 mm 7 m/S 732 mmHg 52%
    20:00 +32°C° 0 mm 8 m/S 733 mmHg 59%
    21:00 +29°C° 0 mm 8 m/S 733 mmHg 67%
    22:00 +28°C° 0 mm 9 m/S 734 mmHg 74%
    23:00 +27°C° 0 mm 8 m/S 734 mmHg 76%

    27 Oktober, Samstag

    Zeit Temperatur Niederschläge Wind Luftdruck Luftfeuchtigkeit
    00:00 +27°C° 0 mm 8 m/S 734 mmHg 77%
    01:00 +26°C° 0 mm 8 m/S 733 mmHg 78%
    02:00 +26°C° 0 mm 7 m/S 733 mmHg 78%
    03:00 +26°C° 0 mm 7 m/S 733 mmHg 78%
    04:00 +26°C° 0 mm 6 m/S 733 mmHg 78%
    05:00 +26°C° 0 mm 6 m/S 733 mmHg 77%
    06:00 +26°C° 0 mm 6 m/S 734 mmHg 76%
    07:00 +26°C° 0 mm 6 m/S 734 mmHg 75%
    08:00 +27°C° 0 mm 6 m/S 735 mmHg 68%
    09:00 +29°C° 0 mm 6 m/S 735 mmHg 60%
    10:00 +32°C° 0 mm 6 m/S 735 mmHg 52%
    11:00 +33°C° 0 mm 6 m/S 734 mmHg 46%
    12:00 +35°C° 0 mm 5 m/S 734 mmHg 39%
    13:00 +36°C° 0 mm 5 m/S 733 mmHg 33%
    14:00 +37°C° 0 mm 4 m/S 733 mmHg 32%
    15:00 +37°C° 0 mm 4 m/S 732 mmHg 31%
    16:00 +37°C° 0 mm 4 m/S 731 mmHg 29%
    17:00 +36°C° 0 mm 5 m/S 732 mmHg 34%
    18:00 +35°C° 0 mm 6 m/S 732 mmHg 39%
    19:00 +34°C° 0 mm 6 m/S 733 mmHg 44%
    20:00 +32°C° 0 mm 7 m/S 733 mmHg 53%
    21:00 +29°C° 0 mm 7 m/S 734 mmHg 61%
    22:00 +27°C° 0 mm 8 m/S 734 mmHg 70%
    23:00 +27°C° 0 mm 7 m/S 734 mmHg 72%

    28 Oktober, Sonntag

    Zeit Temperatur Niederschläge Wind Luftdruck Luftfeuchtigkeit
    00:00 +26°C° 0 mm 7 m/S 734 mmHg 74%
    01:00 +26°C° 0 mm 6 m/S 733 mmHg 76%
    02:00 +24°C° 0 mm 6 m/S 733 mmHg 77%
    03:00 +25°C° 0 mm 5 m/S 733 mmHg 79%
    04:00 +25°C° 0 mm 5 m/S 733 mmHg 80%
    05:00 +25°C° 0 mm 5 m/S 733 mmHg 80%
    06:00 +25°C° 0 mm 5 m/S 734 mmHg 79%
    07:00 +25°C° 0 mm 5 m/S 734 mmHg 79%
    08:00 +27°C° 0 mm 4 m/S 734 mmHg 67%
    09:00 +29°C° 0 mm 4 m/S 735 mmHg 55%
    10:00 +33°C° 0 mm 4 m/S 735 mmHg 43%
    11:00 +34°C° 0 mm 4 m/S 734 mmHg 38%
    12:00 +36°C° 0 mm 3 m/S 734 mmHg 32%
    13:00 +37°C° 0 mm 3 m/S 733 mmHg 27%
    14:00 +38°C° 0 mm 3 m/S 732 mmHg 26%
    15:00 +38°C° 0 mm 3 m/S 732 mmHg 25%
    16:00 +39°C° 0 mm 3 m/S 731 mmHg 24%
    17:00 +37°C° 0 mm 4 m/S 732 mmHg 29%
    18:00 +36°C° 0 mm 5 m/S 732 mmHg 34%
    19:00 +35°C° 0 mm 6 m/S 733 mmHg 39%
    20:00 +33°C° 0 mm 6 m/S 733 mmHg 50%
    21:00 +30°C° 0 mm 6 m/S 734 mmHg 60%
    22:00 +29°C° 0 mm 7 m/S 734 mmHg 71%
    23:00 +28°C° 0 mm 6 m/S 734 mmHg 73%

    29 Oktober, Montag

    Zeit Temperatur Niederschläge Wind Luftdruck Luftfeuchtigkeit
    00:00 +27°C° 0 mm 5 m/S 734 mmHg 75%
    01:00 +27°C° 0 mm 5 m/S 733 mmHg 77%
    02:00 +27°C° 0 mm 4 m/S 733 mmHg 77%
    03:00 +26°C° 0 mm 3 m/S 733 mmHg 78%
    04:00 +26°C° 0 mm 3 m/S 733 mmHg 79%
    05:00 +26°C° 0 mm 3 m/S 733 mmHg 78%
    06:00 +26°C° 0 mm 3 m/S 734 mmHg 78%
    07:00 +26°C° 0 mm 3 m/S 734 mmHg 77%
    08:00 +28°C° 0 mm 3 m/S 734 mmHg 69%
    09:00 +29°C° 0 mm 3 m/S 735 mmHg 61%
    10:00 +31°C° 0 mm 3 m/S 735 mmHg 53%
    11:00 +34°C° 0 mm 3 m/S 734 mmHg 47%
    12:00 +35°C° 0 mm 3 m/S 734 mmHg 41%
    13:00 +37°C° 0 mm 3 m/S 733 mmHg 35%
    14:00 +37°C° 0 mm 3 m/S 733 mmHg 34%
    15:00 +38°C° 0 mm 4 m/S 732 mmHg 34%
    16:00 +38°C° 0 mm 4 m/S 732 mmHg 33%
    17:00 +37°C° 0 mm 5 m/S 732 mmHg 39%
    18:00 +35°C° 0 mm 6 m/S 732 mmHg 44%
    19:00 +34°C° 0 mm 7 m/S 733 mmHg 50%
    20:00 +32°C° 0 mm 7 m/S 733 mmHg 57%
    21:00 +30°C° 0 mm 7 m/S 733 mmHg 64%
    22:00 +29°C° 0 mm 7 m/S 734 mmHg 70%
    23:00 +28°C° 0 mm 6 m/S 734 mmHg 72%

    30 Oktober, Dienstag

    Zeit Temperatur Niederschläge Wind Luftdruck Luftfeuchtigkeit
    00:00 +28°C° 0 mm 6 m/S 733 mmHg 74%
    01:00 +27°C° 0 mm 5 m/S 733 mmHg 76%
    02:00 +27°C° 0 mm 5 m/S 733 mmHg 76%
    03:00 +27°C° 0 mm 5 m/S 733 mmHg 76%
    04:00 +27°C° 0 mm 5 m/S 733 mmHg 76%
    05:00 +27°C° 0 mm 4 m/S 733 mmHg 75%
    06:00 +27°C° 0 mm 4 m/S 734 mmHg 75%
    07:00 +27°C° 0 mm 4 m/S 734 mmHg 75%
    08:00 +28°C° 0 mm 4 m/S 734 mmHg 68%
    09:00 +30°C° 0 mm 4 m/S 735 mmHg 61%
    10:00 +32°C° 0 mm 4 m/S 735 mmHg 54%
    11:00 +33°C° 0 mm 4 m/S 735 mmHg 49%
    12:00 +35°C° 0 mm 4 m/S 734 mmHg 44%
    13:00 +36°C° 0 mm 4 m/S 734 mmHg 38%
    14:00 +36°C° 0 mm 5 m/S 733 mmHg 38%
    15:00 +36°C° 0 mm 5 m/S 733 mmHg 38%
    16:00 +37°C° 0 mm 5 m/S 732 mmHg 37%
    17:00 +35°C° 0 mm 6 m/S 733 mmHg 42%
    18:00 +34°C° 0 mm 6 m/S 733 mmHg 48%
    19:00 +33°C° 0 mm 7 m/S 733 mmHg 53%
    20:00 +30°C° 0 mm 7 m/S 734 mmHg 59%
    21:00 +29°C° 0 mm 7 m/S 734 mmHg 64%
    22:00 +28°C° 0 mm 7 m/S 735 mmHg 70%
    Mehr zeigen